Weather History for CYYR - September, 2013

Change the Weather History Date:

Sunday, September 29, 2013

  Actual Average Record
Temperature  
Mean Temperature 71 °F -  
Max Temperature 80 °F 51 °F - (-1)
Min Temperature 62 °F 37 °F - (-1)
Cooling Degree Days 6    
Growing Degree Days 21 (Base 50)    
Moisture  
Dew Point 48 °F    
Average Humidity 46    
Maximum Humidity 59    
Minimum Humidity 30    
Precipitation  
Precipitation 0.00 in - - ()
Sea Level Pressure  
Sea Level Pressure 29.85 in    
Wind  
Wind Speed 10 mph ()    
Max Wind Speed 18 mph    
Max Gust Speed 24 mph    
Visibility 15.0 miles    
Events      
Averages and records for this station are not official NWS values.
T = Trace of Precipitation, MM = Missing Value Source: Averaged Metar Reports

Daily Weather History Graph

Daily Weather History Graph

Search for Another Location

Airport or City:

Trip Planner

Search our weather history database for the weather conditions in past years. The results will help you decide how hot, cold, wet, or windy it might be!

Date:

Astronomy

Sep. 29, 2013 Rise Set
Actual Time 7:00 AM ADT 6:42 PM ADT
Civil Twilight 6:25 AM ADT 7:17 PM ADT
Nautical Twilight 5:44 AM ADT 7:57 PM ADT
Astronomical Twilight 5:02 AM ADT 8:39 PM ADT
Moon 12:58 AM ADT (9/29) 4:10 PM ADT (9/29)
Length of Visible Light 12h 51m
Length of Day
11h 42m
Waning Crescent, 27% of the Moon is Illuminated
Sep 29
Waning Crescent
Oct 4
New
Oct 11
First Quarter
Oct 18
Full
Oct 26
Last Quarter

Hourly Weather History & Observations

Time (ADT) Temp. Dew Point Humidity Pressure Visibility Wind Dir Wind Speed Gust Speed Precip Events Conditions
12:00 AM 66.2 °F 48.2 °F 52% 29.81 in 15.0 mi West 12.7 mph - N/A   Mostly Cloudy
1:00 AM 66.2 °F 48.2 °F 52% 29.82 in 15.0 mi West 8.1 mph - N/A   Mostly Cloudy
2:00 AM 66.2 °F 48.2 °F 52% 29.83 in 15.0 mi West 10.4 mph - N/A   Mostly Cloudy
3:00 AM 65 °F 48 °F 43% 29.83 in 15 mi WSW 9.2 mph - -   Scattered Clouds
3:00 AM 64.4 °F 48.2 °F 56% 29.83 in 15.0 mi WSW 9.2 mph - N/A   Mostly Cloudy
4:00 AM 62.6 °F 46.4 °F 55% 29.84 in 15.0 mi WSW 8.1 mph - N/A   Scattered Clouds
5:00 AM 62.6 °F 48.2 °F 59% 29.85 in 15.0 mi WSW 6.9 mph - N/A   Mostly Cloudy
6:00 AM 64.4 °F 48.2 °F 56% 29.85 in 15.0 mi West 9.2 mph - N/A   Mostly Cloudy
7:00 AM 62.6 °F 48.2 °F 59% 29.87 in 15.0 mi West 12.7 mph - N/A   Mostly Cloudy
8:00 AM 62.6 °F 48.2 °F 59% 29.87 in 15.0 mi West 9.2 mph - N/A   Mostly Cloudy
9:00 AM 64 °F 48 °F 45% 29.89 in 15 mi West 16.1 mph - -   Scattered Clouds
9:00 AM 64.4 °F 48.2 °F 56% 29.89 in 15.0 mi West 15.0 mph 20.7 mph N/A   Mostly Cloudy
10:00 AM 66.2 °F 48.2 °F 52% 29.89 in 15.0 mi West 18.4 mph 24.2 mph N/A   Mostly Cloudy
11:00 AM 68.0 °F 48.2 °F 49% 29.89 in 15.0 mi West 17.3 mph 23.0 mph N/A   Mostly Cloudy
12:00 PM 68.0 °F 48.2 °F 49% 29.88 in 15.0 mi West 16.1 mph - N/A   Mostly Cloudy
1:00 PM 69.8 °F 50.0 °F 49% 29.87 in 15.0 mi West 12.7 mph - N/A   Mostly Cloudy
2:00 PM 71.6 °F 50.0 °F 46% 29.86 in 15.0 mi WSW 17.3 mph - N/A   Mostly Cloudy
3:00 PM 76 °F 50 °F 30% 29.85 in 15 mi West 12.7 mph - -   Partly Cloudy
3:00 PM 77.0 °F 50.0 °F 39% 29.85 in 15.0 mi West 12.7 mph - N/A   Mostly Cloudy
4:00 PM 77.0 °F 50.0 °F 39% 29.83 in 15.0 mi WSW 11.5 mph 17.3 mph N/A   Mostly Cloudy
5:00 PM 80.6 °F 50.0 °F 34% 29.82 in 15.0 mi WSW 13.8 mph - N/A   Mostly Cloudy
6:00 PM 78.8 °F 48.2 °F 34% 29.82 in 15.0 mi SW 9.2 mph - N/A   Mostly Cloudy
7:00 PM 77.0 °F 46.4 °F 34% 29.82 in 15.0 mi SSW 6.9 mph - N/A   Mostly Cloudy
8:00 PM 73.4 °F 44.6 °F 36% 29.82 in 15.0 mi SSW 9.2 mph - N/A   Mostly Cloudy
9:00 PM 70 °F 45 °F 30% 29.82 in 15 mi SSW 11.5 mph - -   Clear
9:00 PM 69.8 °F 44.6 °F 40% 29.82 in 15.0 mi SSW 11.5 mph - N/A   Mostly Cloudy
10:00 PM 68.0 °F 44.6 °F 43% 29.82 in 15.0 mi South 6.9 mph - N/A   Mostly Cloudy
11:00 PM 62.6 °F 44.6 °F 52% 29.83 in 15.0 mi SW 3.5 mph - N/A   Mostly Cloudy